Falfurrias, TX

9:52 PM CDT on July 23, 2019 (GMT -0500)
Falfurrias

Weather History for KBKS - May, 2019

Change the Weather History Date:

Wednesday, May 8, 2019

  Actual Average (KNQI) Record (KNQI)
Temperature  
Mean Temperature 86 °F -  
Max Temperature 94 °F 85 °F 96 °F (2008)
Min Temperature 77 °F 68 °F 57 °F (2018)
Cooling Degree Days 20    
Growing Degree Days 36 (Base 50)    
Moisture  
Dew Point 74 °F    
Average Humidity 74    
Maximum Humidity 86    
Minimum Humidity 48    
Precipitation  
Precipitation 0.00 in - - ()
Sea Level Pressure  
Sea Level Pressure 29.67 in    
Wind  
Wind Speed 10 mph (SE)    
Max Wind Speed 17 mph    
Max Gust Speed 23 mph    
Visibility 7 miles    
Events      
Averages and records for this station are not official NWS values.
T = Trace of Precipitation, MM = Missing Value Source: NWS Daily Summary

Daily Weather History Graph

Daily Weather History Graph

Search for Another Location

Airport or City:

Astronomy

May. 08, 2019 Rise Set
Actual Time 6:48 AM CDT 8:09 PM CDT
Civil Twilight 6:23 AM CDT 8:34 PM CDT
Nautical Twilight 5:54 AM CDT 9:04 PM CDT
Astronomical Twilight 5:23 AM CDT 9:35 PM CDT
Moon 9:55 AM CDT (5/8) No Moon Set
Length of Visible Light 14h 10m
Length of Day
13h 21m
Waxing Crescent, 16% of the Moon is Illuminated
May 8
Waxing Crescent
May 11
First Quarter
May 18
Full
May 26
Last Quarter
Jun 3
New

Hourly Weather History & Observations

Time (CDT) Temp. Heat Index Dew Point Humidity Pressure Visibility Wind Dir Wind Speed Gust Speed Precip Events Conditions
12:15 AM 77.5 °F - 72.9 °F 85% 29.80 in 10.0 mi SE 9.2 mph 19.6 mph N/A   Overcast
12:35 AM 77.9 °F - 73.2 °F 85% 29.79 in 7.0 mi SE 9.2 mph - N/A   Overcast
12:55 AM 78.1 °F - 73.4 °F 85% 29.79 in 7.0 mi SE 8.1 mph - N/A   Overcast
1:15 AM 78.3 °F - 73.6 °F 85% 29.78 in 7.0 mi SE 9.2 mph - N/A   Overcast
1:35 AM 78.3 °F - 73.6 °F 85% 29.78 in 7.0 mi SE 6.9 mph - N/A   Overcast
1:55 AM 78.3 °F - 73.8 °F 86% 29.78 in 5.0 mi ESE 6.9 mph - N/A   Overcast
2:15 AM 78.4 °F - 73.8 °F 85% 29.76 in 7.0 mi ESE 9.2 mph 17.3 mph N/A   Overcast
2:35 AM 78.8 °F - 73.6 °F 84% 29.75 in 7.0 mi SE 10.4 mph - N/A   Overcast
2:55 AM 78.8 °F - 73.6 °F 84% 29.73 in 7.0 mi ESE 9.2 mph 16.1 mph N/A   Overcast
3:15 AM 78.8 °F - 73.8 °F 84% 29.72 in 7.0 mi ESE 9.2 mph 16.1 mph N/A   Overcast
3:35 AM 79.0 °F - 73.8 °F 84% 29.71 in 7.0 mi SE 12.7 mph 18.4 mph N/A   Overcast
3:55 AM 79.2 °F - 73.8 °F 83% 29.70 in 7.0 mi SE 13.8 mph 19.6 mph N/A   Overcast
4:15 AM 79.2 °F - 73.8 °F 83% 29.69 in 7.0 mi SE 13.8 mph 23.0 mph N/A   Overcast
4:35 AM 79.0 °F - 73.6 °F 83% 29.69 in 7.0 mi SSE 15.0 mph 20.7 mph N/A   Overcast
4:55 AM 78.8 °F - 73.4 °F 83% 29.69 in 7.0 mi SE 12.7 mph 21.9 mph N/A   Overcast
5:15 AM 78.1 °F - 73.4 °F 85% 29.67 in 7.0 mi SE 12.7 mph 17.3 mph N/A   Overcast
5:35 AM 78.1 °F - 73.4 °F 85% 29.67 in 7.0 mi SE 12.7 mph - N/A   Overcast
5:55 AM 78.3 °F - 73.4 °F 85% 29.68 in 7.0 mi SE 12.7 mph - N/A   Overcast
6:15 AM 78.3 °F - 73.4 °F 85% 29.67 in 7.0 mi SE 12.7 mph - N/A   Overcast
6:35 AM 78.3 °F - 73.0 °F 84% 29.68 in 7.0 mi SSE 11.5 mph 16.1 mph N/A   Overcast
6:55 AM 78.1 °F - 72.7 °F 83% 29.68 in 7.0 mi SE 8.1 mph - N/A   Overcast
7:15 AM 78.1 °F - 72.7 °F 83% 29.68 in 7.0 mi SE 10.4 mph - N/A   Overcast
7:35 AM 78.3 °F - 72.5 °F 82% 29.68 in 7.0 mi SE 11.5 mph - N/A   Overcast
7:55 AM 78.6 °F - 72.5 °F 81% 29.69 in 7.0 mi SE 8.1 mph - N/A   Overcast
8:15 AM 78.3 °F - 72.5 °F 82% 29.71 in 7.0 mi SE 5.8 mph - N/A   Overcast
8:35 AM 78.3 °F - 72.5 °F 82% 29.71 in 7.0 mi SE 8.1 mph - N/A   Overcast
8:55 AM 78.4 °F - 72.5 °F 82% 29.71 in 7.0 mi SE 5.8 mph - N/A   Overcast
9:15 AM 78.1 °F - 73.0 °F 84% 29.71 in 5.0 mi SSE 6.9 mph - N/A   Overcast
9:35 AM 78.3 °F - 73.4 °F 85% 29.70 in 7.0 mi SE 6.9 mph - N/A   Overcast
9:55 AM 80.1 °F 84.6 °F 74.3 °F 82% 29.70 in 5.0 mi SE 9.2 mph - N/A   Overcast
10:15 AM 81.5 °F 86.5 °F 73.0 °F 75% 29.68 in 7.0 mi SE 12.7 mph - N/A   Scattered Clouds
10:35 AM 82.9 °F 88.8 °F 73.2 °F 72% 29.67 in 7.0 mi SE 11.5 mph - N/A   Scattered Clouds
10:55 AM 82.0 °F 87.4 °F 72.9 °F 74% 29.67 in 7.0 mi SSE 11.5 mph - N/A   Mostly Cloudy
11:15 AM 82.6 °F 87.8 °F 72.5 °F 71% 29.66 in 10.0 mi SSE 12.7 mph - N/A   Overcast
11:35 AM 83.7 °F 89.7 °F 73.0 °F 70% 29.67 in 7.0 mi SSE 11.5 mph - N/A   Overcast
11:55 AM 85.8 °F 92.6 °F 72.9 °F 65% 29.66 in 7.0 mi South 15.0 mph 20.7 mph N/A   Overcast
12:15 PM 86.5 °F 93.3 °F 72.7 °F 63% 29.65 in 7.0 mi South 16.1 mph 21.9 mph N/A   Overcast
12:35 PM 88.0 °F 95.6 °F 72.9 °F 61% 29.64 in 7.0 mi South 17.3 mph 20.7 mph N/A   Mostly Cloudy
12:55 PM 88.7 °F 96.2 °F 72.7 °F 59% 29.63 in 7.0 mi South 12.7 mph 23.0 mph N/A   Mostly Cloudy
1:15 PM 88.7 °F 96.2 °F 72.5 °F 59% 29.63 in 7.0 mi South 15.0 mph 19.6 mph N/A   Mostly Cloudy
1:35 PM 90.0 °F 97.4 °F 72.3 °F 56% 29.62 in 7.0 mi SSW 11.5 mph 19.6 mph N/A   Mostly Cloudy
1:55 PM 90.9 °F 98.9 °F 72.9 °F 55% 29.61 in 7.0 mi South 10.4 mph 16.1 mph N/A   Mostly Cloudy
2:15 PM 90.7 °F 98.5 °F 72.3 °F 55% 29.62 in 7.0 mi South 9.2 mph - N/A   Mostly Cloudy
2:35 PM 91.2 °F 99.1 °F 72.7 °F 54% 29.61 in 7.0 mi South 6.9 mph - N/A   Mostly Cloudy
2:55 PM 92.5 °F 100.7 °F 72.7 °F 52% 29.60 in 7.0 mi Calm Calm - N/A   Mostly Cloudy
3:15 PM 91.9 °F 99.0 °F 71.4 °F 51% 29.60 in 7.0 mi Calm Calm - N/A   Mostly Cloudy
3:35 PM 92.3 °F 100.3 °F 72.5 °F 52% 29.60 in 7.0 mi Calm Calm - N/A   Overcast
3:55 PM 93.4 °F 100.3 °F 71.1 °F 48% 29.59 in 7.0 mi Calm Calm - N/A   Scattered Clouds
4:15 PM 92.5 °F 100.1 °F 72.1 °F 51% 29.58 in 7.0 mi NE 3.5 mph - N/A   Scattered Clouds
4:35 PM 92.3 °F 99.7 °F 71.8 °F 51% 29.58 in 7.0 mi NNW 3.5 mph - N/A   Scattered Clouds
4:55 PM 92.3 °F 99.7 °F 72.0 °F 51% 29.58 in 7.0 mi NNE 4.6 mph - N/A   Scattered Clouds
5:15 PM 94.1 °F 101.8 °F 71.8 °F 48% 29.58 in 7.0 mi ENE 5.8 mph - N/A   Scattered Clouds
5:35 PM 90.5 °F 101.5 °F 75.4 °F 61% 29.58 in 10.0 mi ENE 11.5 mph - N/A   Mostly Cloudy
5:55 PM 89.8 °F 100.3 °F 75.2 °F 62% 29.58 in 7.0 mi ENE 10.4 mph - N/A   Scattered Clouds
6:15 PM 88.3 °F 99.5 °F 75.9 °F 67% 29.58 in 7.0 mi ENE 9.2 mph 16.1 mph N/A   Clear
6:35 PM 87.1 °F 97.3 °F 75.9 °F 69% 29.59 in 7.0 mi East 11.5 mph 16.1 mph N/A   Clear
6:55 PM 85.5 °F 94.6 °F 75.6 °F 72% 29.59 in 7.0 mi East 12.7 mph 17.3 mph N/A   Clear
7:15 PM 84.2 °F 92.6 °F 75.6 °F 75% 29.60 in 7.0 mi East 8.1 mph - N/A   Clear
7:35 PM 82.9 °F 90.2 °F 75.2 °F 77% 29.60 in 7.0 mi East 11.5 mph 17.3 mph N/A   Clear
7:55 PM 82.0 °F 88.9 °F 75.2 °F 80% 29.61 in 7.0 mi East 10.4 mph 17.3 mph N/A   Clear
8:15 PM 81.5 °F 87.8 °F 75.2 °F 81% 29.62 in 7.0 mi ESE 10.4 mph - N/A   Clear
8:35 PM 80.8 °F 86.5 °F 75.2 °F 83% 29.63 in 7.0 mi ESE 10.4 mph - N/A   Scattered Clouds
8:55 PM 80.4 °F 85.8 °F 75.2 °F 84% 29.64 in 7.0 mi ESE 8.1 mph - N/A   Scattered Clouds
9:15 PM 80.6 °F 86.2 °F 75.2 °F 84% 29.65 in 7.0 mi ESE 8.1 mph - N/A   Overcast
9:35 PM 80.6 °F 86.2 °F 75.2 °F 84% 29.66 in 7.0 mi SE 8.1 mph - N/A   Overcast
9:55 PM 80.8 °F 86.5 °F 75.2 °F 83% 29.67 in 7.0 mi SE 8.1 mph 17.3 mph N/A   Overcast
10:15 PM 81.0 °F 86.9 °F 75.2 °F 83% 29.67 in 7.0 mi SE 10.4 mph - N/A   Overcast
10:35 PM 81.1 °F 87.2 °F 75.2 °F 82% 29.68 in 7.0 mi SE 8.1 mph - N/A   Overcast
10:55 PM 81.3 °F 87.6 °F 75.2 °F 82% 29.69 in 5.0 mi SE 9.2 mph - N/A   Overcast
11:15 PM 81.1 °F 87.2 °F 75.2 °F 82% 29.69 in 5.0 mi SSE 10.4 mph - N/A   Overcast
11:35 PM 81.0 °F 86.9 °F 75.2 °F 83% 29.70 in 5.0 mi SE 9.2 mph - N/A   Overcast
11:55 PM 80.8 °F 86.5 °F 75.2 °F 83% 29.70 in 5.0 mi SE 9.2 mph - N/A   Overcast